DW2363 Weather Reports


time (UTC)temp
F
wind
direction
speed
knots
gust
knots
rain 1hr
in
rain 24hr
in
rain mn
in
humidity
%
barometer
mb
20260507174926 70 355 2.6 7.0 0.00 0.00 0.00 66 1016.4
20260507174425 70 45 1.7 7.0 0.00 0.00 0.00 66 1016.4
20260507173930 70 16 1.7 7.8 0.00 0.00 0.00 66 1016.4
20260507173925 70 43 1.7 7.8 0.00 0.00 0.00 68 1016.4
20260507172926 70 57 0.9 7.0 0.00 0.00 0.00 68 1016.4
20260507172425 70 70 0.9 4.3 0.00 0.00 0.00 71 1016.5
20260507171925 69 132 0.9 3.5 0.00 0.00 0.00 71 1016.4
20260507171426 69 109 1.7 5.2 0.00 0.00 0.00 71 1016.5
20260507170925 69 52 1.7 5.2 0.00 0.00 0.00 68 1016.4
20260507170430 68 38 1.7 7.0 0.00 0.00 0.00 70 1016.4
20260507170425 68 14 1.7 6.1 0.00 0.00 0.00 69 1016.4
20260507165432 67 17 2.6 5.2 0.00 0.00 0.00 72 1016.5
20260507165425 68 21 2.6 7.0 0.00 0.00 0.00 70 1016.5
20260507164425 67 40 2.6 4.3 0.00 0.00 0.00 71 1016.5
20260507163926 68 37 2.6 5.2 0.00 0.00 0.00 70 1016.5
20260507163425 68 29 1.7 5.2 0.00 0.00 0.00 70 1016.5
20260507162929 68 355 1.7 4.3 0.00 0.00 0.00 69 1016.4
20260507162924 68 20 1.7 4.3 0.00 0.00 0.00 70 1016.4
20260507161923 68 11 0.9 3.5 0.00 0.00 0.00 69 1016.3
20260507161423 69 49 0.9 2.6 0.00 0.00 0.00 68 1016.4
20260507160928 68 326 0.9 4.3 0.00 0.00 0.00 67 1016.5
20260507160924 68 24 0.9 4.3 0.00 0.00 0.00 67 1016.4
20260507155923 68 338 1.7 4.3 0.00 0.00 0.00 67 1016.5
20260507155423 68 29 0.9 4.3 0.00 0.00 0.00 67 1016.4
20260507154923 68 73 0.9 3.5 0.00 0.00 0.00 65 1016.4
20260507154423 68 37 0.9 3.5 0.00 0.00 0.00 67 1016.5
20260507153923 68 54 0.9 3.5 0.00 0.00 0.00 67 1016.4
20260507153421 68 39 0.9 2.6 0.00 0.00 0.00 66 1016.4
20260507152920 67 41 0.0 2.6 0.00 0.00 0.00 66 1016.4
20260507152421 67 97 0.0 1.7 0.00 0.00 0.00 66 1016.4
20260507152029 67 61 0.0 2.6 0.00 0.00 0.00 67 1016.4
20260507151925 67 36 0.0 2.6 0.00 0.00 0.00 67 1016.4
20260507151921 67 97 0.9 2.6 0.00 0.00 0.00 66 1016.4
20260507150421 67 111 0.0 2.6 0.00 0.00 0.00 67 1016.4
20260507145920 67 36 0.0 0.9 0.00 0.00 0.00 67 1016.4
20260507145421 66 36 0.0 0.9 0.00 0.00 0.00 65 1016.5
20260507144919 66 36 0.0 1.7 0.00 0.00 0.00 68 1016.5
20260507144417 66 38 0.9 1.7 0.00 0.00 0.00 69 1016.5
20260507143922 66 26 0.0 1.7 0.00 0.00 0.00 66 1016.4
20260507143916 66 20 0.0 1.7 0.00 0.00 0.00 67 1016.4
20260507143531 66 27 0.9 2.6 0.00 0.00 0.00 68 1016.3
20260507143525 66 26 0.0 1.7 0.00 0.00 0.00 68 1016.3
20260507141917 66 5 0.9 2.6 0.00 0.00 0.00 65 1016.3
20260507141417 65 5 0.0 2.6 0.00 0.00 0.00 63 1016.2
20260507140915 65 355 0.9 4.3 0.00 0.00 0.00 65 1016.3
20260507140415 65 355 2.6 5.2 0.00 0.00 0.00 64 1016.2
20260507135915 65 0 3.5 5.2 0.00 0.00 0.00 63 1016.0
20260507135414 65 349 3.5 5.2 0.00 0.00 0.00 63 1016.2
20260507134915 65 349 3.5 5.2 0.00 0.00 0.00 64 1016.0
20260507134415 65 351 3.5 5.2 0.00 0.00 0.00 64 1016.0
20260507133915 65 0 3.5 5.2 0.00 0.00 0.00 64 1015.8
20260507133417 65 5 1.7 4.3 0.00 0.00 0.00 64 1015.9
20260507133413 65 0 3.5 4.3 0.00 0.00 0.00 64 1015.8
20260507132411 65 5 0.9 2.6 0.00 0.00 0.00 64 1015.8
20260507131913 64 35 0.0 1.7 0.00 0.00 0.00 65 1015.9
20260507131412 64 35 0.9 2.6 0.00 0.00 0.00 65 1015.8
20260507130911 64 24 2.6 3.5 0.00 0.00 0.00 65 1015.8
20260507130411 64 22 2.6 4.3 0.00 0.00 0.00 65 1015.8
20260507125910 64 26 2.6 4.3 0.00 0.00 0.00 65 1015.8
20260507125411 64 76 1.7 3.5 0.00 0.00 0.00 67 1015.8
20260507124911 64 76 0.9 2.6 0.00 0.00 0.00 67 1015.8
20260507124411 64 76 0.9 4.3 0.00 0.00 0.00 69 1015.8
20260507123911 64 76 0.9 4.3 0.00 0.00 0.00 70 1015.7
20260507123411 64 76 2.6 4.3 0.00 0.00 0.00 68 1015.7
20260507122911 64 76 2.6 5.2 0.00 0.00 0.00 68 1015.7
20260507122411 64 75 3.5 6.1 0.00 0.00 0.00 69 1015.6
20260507121910 64 90 3.5 6.1 0.00 0.00 0.00 69 1015.8
20260507121411 64 78 2.6 3.5 0.00 0.00 0.00 69 1015.7
20260507120911 63 93 1.7 3.5 0.00 0.00 0.00 69 1015.7
20260507120411 63 144 1.7 3.5 0.00 0.00 0.00 68 1015.8
20260507115914 63 76 2.6 3.5 0.00 0.00 0.00 70 1015.8
20260507115909 63 76 2.6 3.5 0.00 0.00 0.00 69 1015.8
20260507114908 63 76 2.6 3.5 0.00 0.00 0.00 71 1015.7
20260507114408 63 76 2.6 4.3 0.00 0.00 0.00 71 1015.7
20260507113908 63 76 2.6 4.3 0.00 0.00 0.00 71 1015.8
20260507113408 63 76 3.5 4.3 0.00 0.00 0.00 70 1015.8
20260507112909 63 76 2.6 4.3 0.00 0.00 0.00 70 1015.8
20260507112408 63 76 1.7 3.5 0.00 0.00 0.00 69 1015.8
20260507111909 63 76 0.9 2.6 0.00 0.00 0.00 64 1015.9
20260507111405 63 76 1.7 2.6 0.00 0.00 0.00 65 1015.9
20260507110904 63 76 1.7 2.6 0.00 0.00 0.00 67 1016.0
20260507110404 63 76 1.7 3.5 0.00 0.00 0.00 66 1016.0
20260507105904 63 76 2.6 4.3 0.00 0.00 0.00 65 1016.0
20260507105402 63 76 1.7 4.3 0.00 0.00 0.00 65 1016.0
20260507104902 63 76 0.9 3.5 0.00 0.00 0.00 69 1016.0
20260507104404 64 76 0.0 2.6 0.00 0.00 0.00 67 1016.0
20260507103902 64 76 0.0 2.6 0.00 0.00 0.00 69 1016.2
20260507103402 64 76 1.7 2.6 0.00 0.00 0.00 67 1016.2
20260507102902 64 76 2.6 6.1 0.00 0.00 0.00 63 1016.2
20260507102402 64 76 3.5 6.1 0.00 0.00 0.00 63 1016.2
20260507101902 63 76 4.3 6.1 0.00 0.00 0.00 65 1016.2
20260507101402 63 76 2.6 4.3 0.00 0.00 0.00 64 1016.2
20260507100902 62 76 0.9 4.3 0.00 0.00 0.00 66 1016.3
20260507100402 62 76 0.0 0.9 0.00 0.00 0.00 73 1016.3
20260507095902 62 76 0.0 1.7 0.00 0.00 0.00 70 1016.3
20260507095402 62 76 0.0 1.7 0.00 0.00 0.00 73 1016.4
20260507094900 62 76 0.0 1.7 0.00 0.00 0.00 72 1016.4
20260507094400 62 76 0.0 1.7 0.00 0.00 0.00 74 1016.4
20260507093901 62 76 0.9 2.6 0.00 0.00 0.00 75 1016.4
20260507093404 62 76 0.0 1.7 0.00 0.00 0.00 75 1016.5
20260507093400 62 76 0.0 2.6 0.00 0.00 0.00 74 1016.5
20260507092400 61 76 0.0 1.7 0.00 0.00 0.00 75 1016.5
20260507091905 61 76 1.7 2.6 0.00 0.00 0.00 75 1016.6
20260507091901 61 76 0.9 2.6 0.00 0.00 0.00 75 1016.5
20260507090900 61 76 0.9 2.6 0.00 0.00 0.00 75 1016.6
20260507090508 62 47 0.9 4.3 0.00 0.00 0.00 75 1016.7
20260507090358 61 76 1.7 4.3 0.00 0.00 0.00 75 1016.6
20260507085903 61 56 1.7 4.3 0.00 0.00 0.00 75 1016.7
20260507085858 61 72 1.7 4.3 0.00 0.00 0.00 76 1016.6
20260507084358 62 65 1.7 3.5 0.00 0.00 0.00 76 1016.8
20260507083858 62 59 1.7 5.2 0.00 0.00 0.00 76 1016.9
20260507083358 61 119 1.7 5.2 0.00 0.00 0.00 76 1016.9
20260507082858 61 55 0.9 3.5 0.00 0.00 0.00 76 1016.9
20260507082357 61 84 0.9 3.5 0.00 0.00 0.00 76 1017.0
20260507081902 60 20 3.5 5.2 0.00 0.00 0.00 76 1017.0
20260507081858 60 61 1.7 4.3 0.00 0.00 0.00 76 1017.0
20260507080858 60 32 4.3 5.2 0.00 0.00 0.00 76 1017.0
20260507080358 60 39 4.3 6.1 0.00 0.00 0.00 75 1017.1
20260507075858 60 39 5.2 6.1 0.00 0.00 0.00 75 1017.0
20260507075355 60 51 4.3 6.1 0.00 0.00 0.00 75 1017.0
20260507074855 60 46 4.3 6.1 0.00 0.00 0.00 75 1017.0
20260507074356 60 109 5.2 7.0 0.00 0.00 0.00 76 1017.0
20260507073856 60 5 5.2 7.0 0.00 0.00 0.00 76 1017.1
20260507073355 60 65 6.1 7.0 0.00 0.00 0.00 76 1017.1
20260507072855 60 66 5.2 7.0 0.00 0.00 0.00 75 1017.1
20260507072359 60 106 4.3 6.1 0.00 0.00 0.00 74 1017.2
20260507072355 60 77 4.3 7.0 0.00 0.00 0.00 74 1017.1
20260507071359 60 106 4.3 6.1 0.00 0.00 0.00 75 1017.1
20260507071355 60 106 4.3 6.1 0.00 0.00 0.00 75 1017.1
20260507070356 60 106 5.2 6.1 0.00 0.00 0.00 74 1017.1
20260507065855 60 106 5.2 6.1 0.00 0.00 0.00 75 1017.1
20260507065355 60 106 4.3 6.1 0.00 0.00 0.00 75 1017.1
20260507064855 60 106 3.5 6.1 0.00 0.00 0.00 75 1017.1
20260507064357 60 106 0.9 3.5 0.00 0.00 0.00 75 1017.2
20260507064353 60 106 1.7 5.2 0.00 0.00 0.00 75 1017.2
20260507063353 60 106 1.7 5.2 0.00 0.00 0.00 74 1017.2
20260507062852 60 106 2.6 5.2 0.00 0.00 0.00 73 1017.2
20260507062351 61 106 3.5 5.2 0.00 0.00 0.00 74 1017.1
20260507061849 61 106 3.5 5.2 0.00 0.00 0.00 74 1017.0
20260507061350 61 106 3.5 5.2 0.00 0.00 0.00 74 1017.0
20260507060849 61 126 3.5 5.2 0.00 0.00 0.00 74 1017.0
20260507060347 61 126 3.5 5.2 0.00 0.00 0.00 73 1017.1
20260507055850 61 126 3.5 5.2 0.00 0.00 0.00 73 1017.1
20260507055845 61 126 2.6 5.2 0.00 0.00 0.00 72 1017.1
20260507055452 61 126 2.6 5.2 0.00 0.00 0.00 71 1017.1
20260507054345 61 126 2.6 5.2 0.00 0.00 0.00 71 1017.1
20260507053844 61 127 2.6 3.5 0.00 0.00 0.00 71 1017.1
20260507053343 61 127 2.6 3.5 0.00 0.00 0.00 71 1017.1
20260507052843 61 131 0.9 3.5 0.00 0.00 0.00 71 1017.1
20260507052343 61 132 0.0 1.7 0.00 0.00 0.00 71 1017.0
20260507051842 61 139 0.0 1.7 0.00 0.00 0.00 70 1017.0
20260507051343 61 132 0.0 1.7 0.00 0.00 0.00 70 1017.0
20260507050847 61 132 0.9 3.5 0.00 0.00 0.00 70 1017.1
20260507050843 61 132 0.9 3.5 0.00 0.00 0.00 71 1017.1
20260507045843 61 135 1.7 4.3 0.00 0.00 0.00 72 1017.0
20260507045343 62 149 1.7 4.3 0.00 0.00 0.00 74 1017.0
20260507044841 62 150 1.7 4.3 0.00 0.00 0.00 75 1017.0
20260507044341 62 151 1.7 4.3 0.00 0.00 0.00 75 1017.0
20260507043841 62 144 1.7 3.5 0.00 0.00 0.00 75 1017.0
20260507043341 62 141 1.7 3.5 0.00 0.00 0.00 75 1017.0
20260507042841 62 150 1.7 3.5 0.00 0.00 0.00 75 1017.0
20260507042341 62 158 2.6 4.3 0.00 0.00 0.00 75 1017.0
20260507041841 62 132 2.6 4.3 0.00 0.00 0.00 75 1016.9
20260507041342 62 132 2.6 3.5 0.00 0.00 0.00 75 1017.0
20260507040841 62 130 2.6 3.5 0.00 0.00 0.00 76 1016.9
20260507040344 61 130 0.9 2.6 0.00 0.00 0.00 76 1016.9
20260507040340 61 130 1.7 2.6 0.00 0.00 0.00 76 1016.9
20260507035340 61 149 0.0 1.7 0.00 0.00 0.00 75 1016.9
20260507034839 61 145 0.0 1.7 0.00 0.00 0.00 75 1016.7
20260507034339 61 144 0.0 2.6 0.00 0.00 0.00 75 1016.6
20260507033839 61 149 0.9 2.6 0.00 0.00 0.00 75 1016.6
20260507033339 60 147 0.9 2.6 0.00 0.00 0.00 76 1016.6
20260507032839 60 143 0.9 2.6 0.00 0.00 0.00 75 1016.6
20260507032339 60 143 1.7 3.5 0.00 0.00 0.00 73 1016.5
20260507031839 60 142 0.9 3.5 0.00 0.00 0.00 74 1016.4
20260507031338 60 131 0.0 1.7 0.00 0.00 0.00 75 1016.4
20260507030838 60 121 0.0 1.7 0.00 0.00 0.00 75 1016.4
20260507030339 60 115 0.0 1.7 0.00 0.00 0.00 75 1016.3
20260507025843 60 246 1.7 2.6 0.00 0.00 0.00 77 1016.3
20260507025839 60 317 0.9 2.6 0.00 0.00 0.00 76 1016.3
20260507024840 60 245 0.9 2.6 0.00 0.00 0.00 77 1016.2
20260507024836 60 222 0.9 2.6 0.00 0.00 0.00 73 1016.0
20260507023835 60 235 0.9 2.6 0.00 0.00 0.00 74 1016.0
20260507023335 60 220 2.6 4.3 0.00 0.00 0.00 70 1016.2
20260507022833 60 211 1.7 4.3 0.00 0.00 0.00 72 1016.0
20260507022337 60 201 2.6 6.1 0.00 0.00 0.00 70 1016.0
20260507022333 60 225 1.7 6.1 0.00 0.00 0.00 74 1015.9
20260507021334 60 204 4.3 6.1 0.00 0.00 0.00 71 1015.9
20260507021330 60 205 4.3 6.1 0.00 0.00 0.00 71 1015.8
20260507020331 60 213 4.3 6.1 0.00 0.00 0.00 70 1015.8
20260507015828 61 213 4.3 6.1 0.00 0.00 0.00 70 1015.8
20260507015328 61 213 4.3 5.2 0.00 0.00 0.00 72 1015.8
20260507014829 62 214 3.5 5.2 0.00 0.00 0.00 72 1015.8
20260507014329 63 207 3.5 5.2 0.00 0.00 0.00 76 1015.8
20260507013834 63 238 3.5 6.1 0.00 0.00 0.00 75 1015.8
20260507013829 63 221 3.5 5.2 0.00 0.00 0.00 76 1015.9
20260507013328 63 253 3.5 6.1 0.00 0.00 0.00 75 1015.8
20260507012329 63 258 2.6 7.8 0.00 0.00 0.00 75 1015.8
20260507011828 63 218 2.6 7.8 0.00 0.00 0.00 76 1015.8
20260507011329 63 285 2.6 7.0 0.00 0.00 0.00 76 1015.7
20260507010829 62 236 2.6 6.1 0.00 0.00 0.00 77 1015.7
20260507010329 62 242 2.6 6.1 0.00 0.00 0.00 77 1015.7
20260507005828 62 223 2.6 6.1 0.00 0.00 0.00 78 1015.7
20260507005328 62 193 2.6 4.3 0.00 0.00 0.00 79 1015.7
20260507004828 62 229 1.7 5.2 0.00 0.00 0.00 80 1015.6
20260507004328 61 248 1.7 5.2 0.00 0.00 0.00 81 1015.7
20260507003828 61 221 1.7 4.3 0.00 0.00 0.00 83 1015.7
20260507003334 60 226 2.6 7.0 0.00 0.00 0.00 84 1015.7
20260507003329 60 224 1.7 4.3 0.00 0.00 0.00 84 1015.7
20260507002328 60 225 2.6 7.0 0.00 0.00 0.00 84 1015.7
20260507001828 60 244 2.6 4.3 0.00 0.00 0.00 84 1015.6
20260507001327 60 228 2.6 6.1 0.00 0.00 0.00 83 1015.7
20260507000826 60 237 3.5 7.0 0.00 0.00 0.00 84 1015.7
20260507000328 60 284 3.5 7.0 0.00 0.00 0.00 84 1015.7
20260506235824 60 227 2.6 7.0 0.00 0.00 0.00 85 1015.7
20260506235324 60 254 2.6 7.0 0.00 0.00 0.00 86 1015.6
20260506234824 60 227 3.5 7.0 0.00 0.00 0.00 86 1015.6
20260506234325 60 216 3.5 7.0 0.00 0.00 0.00 86 1015.6
20260506233823 60 201 4.3 7.8 0.00 0.00 0.00 85 1015.6
20260506233323 60 175 4.3 7.8 0.00 0.00 0.00 85 1015.6
20260506232826 61 206 3.5 9.6 0.00 0.00 0.00 83 1015.6
20260506232822 60 186 4.3 7.8 0.00 0.00 0.00 84 1015.7
20260506231820 61 180 3.5 9.6 0.00 0.00 0.00 83 1015.6
20260506231320 60 205 4.3 8.7 0.00 0.00 0.00 83 1015.7
20260506230820 60 234 5.2 8.7 0.00 0.00 0.00 83 1015.8
20260506230320 60 215 6.1 8.7 0.00 0.00 0.00 83 1015.8
20260506225818 60 213 6.1 9.6 0.00 0.00 0.00 82 1015.8
20260506225322 60 187 6.1 10.4 0.00 0.00 0.00 81 1015.9
20260506225318 60 200 6.1 10.4 0.00 0.00 0.00 81 1015.7
20260506224319 60 168 6.1 10.4 0.00 0.00 0.00 81 1015.9
20260506223818 59 203 6.1 9.6 0.00 0.00 0.00 81 1016.0
20260506223318 59 178 7.0 11.3 0.00 0.00 0.00 80 1016.0
20260506222816 59 199 7.0 11.3 0.00 0.00 0.00 79 1016.2
20260506222316 60 187 7.0 11.3 0.00 0.00 0.00 78 1016.2
20260506221816 60 213 7.0 12.2 0.00 0.00 0.00 79 1016.3
20260506221316 60 210 7.0 12.2 0.00 0.00 0.00 78 1016.3
20260506220820 60 171 6.1 10.4 0.00 0.00 0.00 81 1016.5
20260506220816 60 198 6.1 12.2 0.00 0.00 0.00 79 1016.5
20260506215818 59 196 7.0 10.4 0.00 0.00 0.00 81 1016.6
20260506215814 59 184 7.0 10.4 0.00 0.00 0.00 81 1016.5
20260506214814 59 196 6.1 10.4 0.00 0.00 0.00 81 1016.6
20260506214314 59 194 5.2 10.4 0.00 0.00 0.00 82 1016.7
20260506213814 58 196 6.1 10.4 0.00 0.00 0.00 83 1016.7
20260506213314 58 187 7.0 11.3 0.00 0.00 0.00 83 1016.8
20260506212814 58 163 6.1 11.3 0.00 0.00 0.00 82 1016.9
20260506212318 59 184 7.0 11.3 0.00 0.00 0.00 81 1016.9
20260506212314 59 220 6.1 11.3 0.00 0.00 0.00 82 1016.8
20260506211313 58 210 7.0 12.2 0.00 0.00 0.00 82 1016.8
20260506210812 58 182 7.0 12.2 0.00 0.00 0.00 81 1016.8
20260506210316 58 161 5.2 11.3 0.00 0.00 0.00 80 1016.9
20260506210312 58 185 6.1 11.3 0.00 0.00 0.00 81 1016.9
20260506205312 59 171 6.1 12.2 0.00 0.00 0.00 80 1016.9
20260506204811 59 209 6.1 12.2 0.00 0.00 0.00 80 1017.0
20260506204311 59 196 5.2 10.4 0.00 0.00 0.00 79 1016.9
20260506203811 59 184 5.2 8.7 0.00 0.00 0.00 80 1017.0
20260506203315 59 185 5.2 9.6 0.00 0.00 0.00 80 1017.1
20260506203311 59 221 5.2 8.7 0.00 0.00 0.00 79 1017.1
20260506202311 59 237 6.1 9.6 0.00 0.00 0.00 80 1017.2
20260506201807 59 220 5.2 8.7 0.00 0.00 0.00 82 1017.2
20260506201308 58 184 5.2 10.4 0.00 0.00 0.00 83 1017.3
20260506200808 58 210 4.3 10.4 0.00 0.00 0.00 83 1017.3
20260506200307 58 194 5.2 10.4 0.00 0.00 0.00 83 1017.3
20260506195808 58 188 6.1 10.4 0.00 0.00 0.00 83 1017.4
20260506195306 58 190 5.2 10.4 0.00 0.00 0.00 82 1017.4
20260506194812 58 202 5.2 9.6 0.00 0.00 0.00 84 1017.4
20260506194807 58 196 5.2 8.7 0.00 0.00 0.00 83 1017.4
20260506193811 58 195 5.2 10.4 0.00 0.00 0.00 83 1017.5
20260506193805 57 194 5.2 9.6 0.00 0.00 0.00 84 1017.4
20260506192812 58 209 5.2 9.6 0.00 0.00 0.00 82 1017.5
20260506192806 57 186 5.2 10.4 0.00 0.00 0.00 83 1017.5
20260506191805 58 182 5.2 9.6 0.00 0.00 0.00 82 1017.5
20260506191306 58 191 4.3 9.6 0.00 0.00 0.00 82 1017.7
20260506190806 58 200 5.2 9.6 0.00 0.00 0.00 83 1017.8
20260506190305 58 192 4.3 8.7 0.00 0.00 0.00 81 1017.7
20260506185806 59 192 3.5 8.7 0.00 0.00 0.00 84 1017.9
20260506185307 57 205 4.3 8.7 0.00 0.00 0.00 84 1017.9
20260506184805 57 209 5.2 9.6 0.00 0.00 0.00 85 1017.8
20260506184312 57 206 5.2 8.7 0.00 0.00 0.00 85 1017.8
20260506184306 57 193 5.2 9.6 0.00 0.00 0.00 83 1017.8
20260506183305 57 217 5.2 8.7 0.00 0.00 0.00 84 1017.8
20260506182805 57 193 4.3 7.8 0.00 0.00 0.00 83 1017.8
20260506182307 57 197 3.5 7.8 0.00 0.00 0.00 82 1017.9
20260506181806 58 196 4.3 7.8 0.00 0.00 0.00 82 1017.9
20260506181306 58 200 3.5 7.0 0.00 0.00 0.00 83 1017.9
20260506180804 58 201 2.6 7.0 0.00 0.00 0.00 82 1017.9
20260506180304 58 146 3.5 7.0 0.00 0.00 0.00 82 1017.9
20260506175804 58 215 4.3 8.7 0.00 0.00 0.00 84 1018.0
20260506175306 58 139 4.3 8.7 0.00 0.00 0.00 84 1018.0